EHI
16 15 14 11 10 9 9 9 7 6 6 4 1 0 0 0 1 2 4 6 5 2 0 0 1 2 3 3 2 2 2 2 2 2 3 3 2 1 1 0 0 0 0
14 14 14 13 12 11 9 7 6 6 5 2 0 0 0 1 2 2 3 5 4 1 0 1 1 1 1 1 1 1 1 1 1 1 2 2 2 2 1 0 0 0 0
12 12 14 13 12 10 7 5 5 5 4 2 0 0 1 2 2 2 2 2 2 0 1 2 2 2 1 0 0 1 1 0 0 0 1 1 1 1 1 0 0 0 0
9 11 12 12 10 7 5 3 3 4 4 3 1 0 1 1 1 1 1 1 1 1 3 4 5 3 2 2 2 1 0 0 0 0 0 0 1 1 1 1 0 0 0
5 7 10 10 9 7 5 4 4 4 4 3 2 0 0 1 0 0 0 1 2 4 4 5 6 5 4 5 4 1 0 0 0 0 0 0 1 2 2 1 0 0 0
1 3 7 10 10 9 6 5 6 5 4 2 1 0 0 1 0 0 0 2 4 5 4 4 5 6 6 5 3 1 0 0 0 0 0 0 1 1 1 1 0 0 0
1 3 6 10 12 10 5 4 6 5 3 2 1 1 0 0 0 0 0 2 5 5 3 3 4 5 6 5 3 1 1 1 1 1 1 0 0 0 0 0 0 0 0
2 3 5 8 9 8 4 3 4 3 1 2 3 3 2 1 0 0 0 2 4 5 4 4 3 4 5 5 3 1 1 1 1 1 2 1 0 0 0 0 0 0 0
4 4 4 5 5 5 4 4 4 3 2 2 3 4 3 2 1 0 0 1 2 4 4 3 3 2 3 5 4 1 1 1 0 1 2 1 0 0 0 0 0 0 0
4 4 4 4 4 5 6 6 6 6 5 4 4 4 4 3 1 0 0 0 1 2 2 2 2 2 2 4 3 1 0 0 0 0 1 1 0 0 0 0 0 0 0
4 4 5 5 5 7 8 8 7 7 8 7 6 4 3 2 1 0 0 0 0 0 0 1 1 1 2 3 2 1 0 0 0 0 0 0 0 0 0 0 0 0 0
5 4 4 5 6 8 9 8 7 7 8 8 6 3 2 1 1 1 0 0 0 0 0 0 1 1 2 2 1 0 0 0 0 0 0 0 0 0 0 0 0 0 0
4 3 3 4 7 7 7 6 6 6 7 6 5 2 1 0 0 1 1 1 0 0 0 0 0 1 1 1 1 0 0 0 0 0 0 0 0 0 0 0 0 0 0
2 2 2 4 6 6 5 4 4 4 4 4 3 2 0 0 0 1 2 2 1 0 0 0 0 0 0 0 0 0 0 0 0 0 0 0 0 0 0 0 0 0 0
1 1 3 4 5 5 5 4 3 3 3 3 3 1 0 0 0 1 2 2 1 0 0 0 0 0 0 0 0 0 0 0 0 0 0 0 0 0 0 0 0 0 0
1 2 4 4 3 3 3 3 3 3 3 2 2 1 0 0 0 0 1 1 0 0 0 0 0 0 0 0 0 0 0 0 0 0 0 0 0 0 0 0 0 0 0
1 2 3 3 1 1 1 2 2 2 1 1 1 0 0 0 0 0 0 0 0 0 0 0 0 0 0 0 0 0 0 0 0 0 0 0 0 0 0 0 0 0 0
0 1 1 1 0 0 0 0 0 0 0 0 0 0 0 0 0 0 0 0 0 0 0 0 0 0 0 0 0 0 0 0 0 0 0 0 0 0 0 0 0 0 0
0 0 0 0 0 0 0 0 0 0 0 0 0 0 0 0 0 0 0 0 0 0 0 0 0 0 0 0 0 0 0 0 0 0 0 0 0 0 0 0 0 0 0
0 0 0 0 0 0 0 0 0 0 0 0 0 0 0 0 0 0 0 0 0 0 0 0 0 0 0 0 0 0 0 0 0 0 0 0 0 0 0 0 0 0 0
0 0 0 0 0 0 0 0 0 0 0 0 0 0 0 0 0 0 0 0 0 0 0 0 0 0 0 0 0 0 0 0 0 0 0 0 0 0 0 0 0 0 0
0 0 0 0 0 0 0 0 0 0 0 0 0 0 0 0 0 0 0 0 0 0 0 0 0 0 0 0 0 0 0 0 0 0 0 0 0 0 0 0 0 0 0
0 0 0 0 0 0 0 0 0 0 0 0 0 0 0 0 0 0 0 0 0 0 0 0 0 0 0 0 0 0 0 0 0 0 0 0 0 0 0 0 0 0 0
0 0 0 0 0 0 0 0 0 0 0 0 0 0 0 0 0 0 0 0 0 0 0 0 0 0 0 0 0 0 0 0 0 0 0 0 0 0 0 0 0 0 0
0 0 0 0 0 0 0 0 0 0 0 0 0 0 0 0 0 0 0 0 0 0 0 0 0 0 0 0 0 0 0 0 0 0 0 0 0 0 0 0 0 0 0
0 0 0 0 0 0 0 0 0 0 0 0 0 0 0 0 0 0 0 0 0 0 0 0 0 0 0 0 0 0 0 0 0 0 0 0 0 0 0 0 0 0 0
Wind_Speed
3 2 2 2 3 2 2 3 4 4 6 6 6 7 7 7 7 7 3 3 4 5 7 7 8 8 9 8 9 9 8 9 10 11 12 13 13 13 13 12 12 13 14
2 2 3 2 2 2 3 3 4 4 5 5 7 6 7 7 6 7 6 3 5 5 6 7 8 8 9 9 9 9 9 9 10 10 11 12 13 13 14 13 13 13 13
2 3 3 3 2 2 2 3 4 5 4 5 6 6 6 6 6 6 7 5 5 6 6 6 7 8 9 10 10 10 10 9 9 10 11 11 12 13 13 13 13 13 13
3 3 3 2 2 3 3 3 4 5 4 5 5 5 5 5 6 6 6 6 5 5 6 6 6 8 9 9 10 10 10 10 10 10 10 11 12 12 12 13 14 14 13
2 3 2 2 3 3 3 4 3 5 5 5 6 5 5 5 5 6 6 6 6 6 5 4 6 7 8 9 9 10 11 11 10 11 11 11 11 11 11 12 13 13 13
2 3 2 2 3 2 3 3 4 4 5 5 6 5 6 5 5 5 6 5 5 6 6 6 5 6 8 8 9 10 11 11 11 11 12 12 11 11 11 10 12 13 12
2 3 3 2 3 2 3 4 4 4 4 4 5 5 5 6 5 4 4 4 5 5 6 5 5 5 4 8 8 8 9 10 10 11 11 10 11 11 11 10 10 11 12
2 3 3 3 2 2 3 3 3 4 3 3 4 6 5 3 3 3 3 4 4 4 4 4 4 5 5 4 3 6 7 8 9 10 11 10 10 10 11 11 11 12 12
2 2 3 3 3 4 2 3 4 4 4 3 3 4 5 4 4 2 3 3 3 3 4 3 4 4 5 4 3 4 4 5 7 8 9 9 9 10 11 11 11 12 13
3 3 3 3 4 3 3 4 3 4 5 4 2 3 4 5 5 4 3 3 4 4 4 4 4 4 4 3 2 2 3 4 5 6 7 8 8 9 10 10 11 11 13
3 3 3 3 4 3 3 4 4 5 4 5 4 3 4 4 6 5 5 4 4 3 3 4 3 3 3 3 3 1 1 3 4 5 6 7 8 9 10 10 11 11 11
2 3 3 3 4 3 3 4 4 5 4 5 5 4 4 4 4 5 5 5 5 4 4 3 3 3 3 3 3 1 1 2 3 4 6 7 7 8 10 10 11 11 11
2 3 3 4 4 3 3 4 4 5 5 5 5 5 4 5 4 4 5 5 6 5 3 3 3 3 3 2 2 2 3 3 3 4 4 5 6 7 8 10 10 10 10
2 3 4 4 4 4 4 3 4 4 4 5 5 5 5 4 4 4 4 4 5 5 4 4 3 3 3 3 1 4 3 4 4 3 3 4 5 5 6 6 7 8 7
3 3 3 3 3 3 4 4 4 5 5 5 5 4 5 4 4 4 4 4 5 6 6 4 3 3 3 3 2 3 3 3 5 4 4 4 4 4 4 5 5 6 7
3 3 3 3 3 3 4 4 5 4 5 5 4 5 5 4 4 4 4 4 4 5 6 5 4 4 3 3 3 4 4 4 6 6 6 5 5 5 5 5 5 6 7
3 3 3 3 3 3 3 3 5 4 5 5 5 5 5 5 4 4 4 4 4 4 6 6 5 4 4 4 2 3 4 4 4 8 7 6 6 6 6 5 5 5 5
2 2 3 3 3 3 3 4 5 5 5 6 6 5 5 4 4 4 4 4 4 5 6 7 5 4 4 4 3 4 4 4 4 5 8 8 7 7 7 6 6 6 6
2 2 2 2 3 4 4 4 5 5 5 5 6 6 5 5 5 4 5 5 4 4 5 6 5 3 3 3 3 3 3 3 4 4 7 9 9 8 8 8 8 7 7
2 2 2 3 3 4 4 4 4 5 5 5 5 6 6 5 5 5 5 5 5 5 5 5 4 3 3 3 3 3 3 3 3 3 4 4 7 9 10 9 9 9 8
2 2 2 3 3 3 3 4 5 5 5 5 5 5 5 4 5 5 5 5 6 5 5 5 4 3 3 3 3 3 3 3 3 3 4 4 5 6 7 10 11 10 10
2 2 3 3 3 3 2 4 6 6 5 5 5 5 5 4 4 6 7 8 8 7 6 6 5 4 4 4 3 4 4 4 3 2 3 4 4 5 5 6 8 11 11
2 2 3 3 3 3 2 4 5 6 6 5 5 5 5 3 4 4 4 7 8 9 9 7 7 7 6 5 5 6 4 5 5 3 3 5 4 5 5 5 9 11 11
2 2 3 3 3 3 2 4 6 5 4 4 4 4 4 4 4 4 6 6 6 4 5 6 6 7 6 6 6 6 6 6 6 5 5 5 5 5 4 4 9 11 11
2 2 2 3 3 3 3 4 6 4 3 4 4 4 4 4 2 3 5 6 6 5 4 5 6 7 7 7 6 5 5 5 5 4 4 5 5 4 4 5 6 12 12
2 2 2 3 3 4 3 3 5 4 3 4 3 3 2 2 2 3 5 6 6 6 6 5 5 7 8 8 8 8 6 6 5 4 3 4 4 4 4 5 5 6 9
Wind_Direction
237 239 248 267 278 290 271 280 292 294 288 279 275 277 277 276 276 274 257 197 229 252 257 255 249 243 242 244 242 235 235 239 235 227 223 220 217 216 218 221 220 219 214
247 256 248 260 276 289 310 301 299 290 290 293 288 287 282 279 273 275 274 232 209 234 255 259 255 249 246 247 248 241 237 238 238 232 225 221 217 214 216 219 221 222 219
242 257 261 257 278 280 272 280 287 283 279 279 282 284 279 277 277 271 272 270 244 216 230 248 256 252 249 249 245 240 239 240 239 235 230 224 220 216 213 214 219 222 221
250 259 266 269 273 270 275 278 285 291 289 285 284 283 280 272 269 267 267 268 271 264 229 226 251 256 252 250 244 240 240 240 241 238 234 227 221 217 215 213 215 219 220
262 262 269 284 268 276 288 294 308 298 295 293 285 276 276 273 268 263 267 269 271 270 269 225 234 245 247 248 245 242 240 239 239 239 235 229 221 216 215 216 214 217 218
245 263 251 263 274 281 289 297 296 293 293 292 290 289 279 277 272 269 267 268 267 268 265 268 250 226 226 239 244 244 243 242 238 236 233 229 221 214 214 219 218 216 217
242 255 270 248 261 275 293 301 295 290 289 296 285 280 262 249 259 263 265 271 270 272 271 268 265 271 236 220 229 240 245 243 240 238 233 233 227 219 215 218 219 217 215
248 250 267 266 268 268 268 286 289 293 294 296 297 293 281 242 235 260 263 260 273 275 277 275 276 268 273 261 208 230 242 245 241 238 235 231 228 223 219 219 222 219 216
237 265 264 274 272 270 277 281 278 280 285 280 282 293 300 308 318 265 276 275 276 277 274 279 270 270 266 267 261 221 230 243 242 238 237 235 228 225 225 224 225 225 221
243 242 255 267 273 277 276 273 284 279 276 279 269 264 284 307 295 297 285 288 285 276 278 282 280 268 261 260 262 270 224 231 240 243 241 235 231 230 228 230 233 232 228
238 240 247 252 262 268 276 281 284 279 275 279 283 281 277 270 265 282 294 302 298 293 288 274 276 274 269 260 250 216 183 230 239 240 240 236 232 234 232 234 235 235 232
233 242 257 254 258 268 264 269 276 270 273 274 273 273 276 282 283 283 289 296 302 303 293 283 274 272 265 255 245 131 202 235 239 242 239 235 232 235 235 234 237 236 233
244 250 267 259 263 266 265 272 274 281 273 265 264 270 272 274 287 285 287 297 301 298 284 276 273 270 271 268 237 186 209 212 222 231 234 226 228 234 238 235 234 234 236
271 277 269 265 267 267 267 268 271 274 270 266 266 270 273 275 282 282 285 291 295 294 288 292 293 277 275 263 255 228 228 195 207 211 217 223 223 225 231 240 234 231 236
268 271 275 272 273 272 270 266 268 275 277 270 267 260 267 274 270 276 275 272 277 291 297 298 287 285 277 261 234 254 256 200 198 203 210 219 221 223 225 234 236 232 233
275 271 276 278 276 272 267 268 266 271 274 270 271 276 275 282 284 277 273 261 254 265 281 294 291 288 290 280 225 251 256 209 208 207 208 212 218 216 220 228 236 232 229
266 266 272 268 262 265 266 265 272 273 272 275 272 270 272 275 280 281 280 270 261 261 270 283 286 287 277 272 261 249 247 246 218 195 201 210 215 219 222 224 229 232 230
272 280 280 274 268 265 265 266 271 270 271 274 275 274 273 271 266 269 279 278 273 262 267 279 285 285 282 275 266 256 251 252 250 186 194 209 215 218 220 222 225 227 229
289 293 286 275 277 277 273 269 269 271 271 272 276 276 275 276 276 280 280 283 280 275 271 273 280 284 279 276 272 264 258 256 257 206 195 208 214 218 221 220 220 221 222
283 279 278 277 280 281 283 283 276 274 276 275 275 274 273 273 276 279 276 278 282 284 278 273 277 278 273 275 264 271 264 245 253 246 222 216 206 209 216 218 218 218 217
282 280 278 280 284 282 300 303 289 279 278 278 279 276 276 269 271 271 282 287 288 283 285 285 284 286 290 291 281 281 279 268 249 250 244 232 216 219 210 214 216 217 217
293 293 287 290 289 300 344 309 295 288 284 281 281 283 280 251 248 239 246 259 269 275 287 290 290 289 283 282 279 275 280 273 264 233 260 260 244 241 233 227 199 198 207
289 294 299 302 299 325 322 293 288 288 288 287 285 283 285 299 286 287 259 239 244 242 246 267 281 283 285 287 283 276 270 278 285 283 266 268 252 245 237 220 183 193 204
273 287 291 296 303 325 316 292 289 273 282 286 282 277 283 297 311 308 295 291 285 270 249 246 266 273 280 283 275 271 272 268 260 250 250 261 257 251 245 228 186 197 206
266 276 287 298 303 312 316 302 295 286 290 297 295 290 283 288 346 320 290 292 294 291 254 239 253 265 277 274 271 270 264 261 264 255 236 252 264 260 248 237 202 196 208
269 284 300 296 298 306 323 302 292 286 299 299 295 284 236 265 337 316 289 289 289 299 305 290 259 245 247 243 232 239 259 266 273 272 256 255 264 265 257 237 222 202 208